Location: Misciano
(43.5000°N, 11.9500°E)
Time: 20:47:33
(UTC+00:00)

Cosmos 2333 Rocket - Pass Details

Date: 13 August 2020
Orbit: 837 x 864 km, 70.8° (Epoch: 21 September)

Event Time Altitude Azimuth Distance (km) Brightness Sun altitude
Rises 21:31:27 0° 339° (NNW) 3,454 6.6 -27.4°
Reaches altitude 10° 21:34:03 10° 346° (NNW) 2,512 5.6 -27.6°
Maximum altitude 21:39:34 44° 58° (ENE) 1,173 2.9 -28.1°
Enters shadow 21:39:47 44° 64° (ENE) 1,176 2.8 -28.1°
